• In Belgien
  • Länderverzeichnis
  • Für 7 Tage
  • Wassertemperatur
  • Satellitenkarten
  • Wetterkarte
  • Widgets
  • user-avatar
    Anmelden

    Stündliche Wetter Sydney

    Heute, 24 April, Dienstag

    Zeit Temperatur Niederschläge Wind Luftdruck Luftfeuchtigkeit
    00:00 +18°C° 0 mm 1 m/S 764 mmHg 89%
    01:00 +17°C° 0 mm 2 m/S 764 mmHg 91%
    02:00 +16°C° 0 mm 2 m/S 763 mmHg 92%
    03:00 +16°C° 0 mm 2 m/S 763 mmHg 93%
    04:00 +15°C° 0 mm 2 m/S 763 mmHg 94%
    05:00 +15°C° 0 mm 2 m/S 763 mmHg 93%
    06:00 +15°C° 0 mm 2 m/S 763 mmHg 93%
    07:00 +14°C° 0 mm 3 m/S 764 mmHg 92%
    08:00 +18°C° 0 mm 2 m/S 764 mmHg 79%
    09:00 +21°C° 0 mm 2 m/S 764 mmHg 65%
    10:00 +25°C° 0 mm 2 m/S 763 mmHg 51%
    11:00 +26°C° 0 mm 2 m/S 763 mmHg 45%
    12:00 +27°C° 0 mm 3 m/S 762 mmHg 39%
    13:00 +28°C° 0 mm 3 m/S 762 mmHg 33%
    14:00 +27°C° 0 mm 3 m/S 762 mmHg 35%
    15:00 +26°C° 0 mm 3 m/S 762 mmHg 37%
    16:00 +26°C° 0 mm 3 m/S 762 mmHg 40%
    17:00 +24°C° 0 mm 2 m/S 762 mmHg 51%
    18:00 +20°C° 0 mm 2 m/S 762 mmHg 61%
    19:00 +18°C° 0 mm 2 m/S 762 mmHg 72%
    20:00 +18°C° 0 mm 2 m/S 762 mmHg 75%
    21:00 +17°C° 0 mm 2 m/S 762 mmHg 78%
    22:00 +18°C° 0 mm 1 m/S 762 mmHg 81%
    23:00 +16°C° 0 mm 2 m/S 762 mmHg 80%

    Morgen, 25 April, Mittwoch

    Zeit Temperatur Niederschläge Wind Luftdruck Luftfeuchtigkeit
    00:00 +16°C° 0 mm 2 m/S 762 mmHg 80%
    01:00 +16°C° 0 mm 2 m/S 762 mmHg 79%
    02:00 +15°C° 0 mm 2 m/S 761 mmHg 78%
    03:00 +14°C° 0 mm 3 m/S 761 mmHg 76%
    04:00 +14°C° 0 mm 3 m/S 761 mmHg 75%
    05:00 +14°C° 0 mm 3 m/S 761 mmHg 73%
    06:00 +14°C° 0 mm 3 m/S 761 mmHg 71%
    07:00 +14°C° 0 mm 3 m/S 761 mmHg 69%
    08:00 +18°C° 0 mm 3 m/S 761 mmHg 62%
    09:00 +22°C° 0 mm 3 m/S 761 mmHg 54%
    10:00 +26°C° 0 mm 2 m/S 761 mmHg 47%
    11:00 +27°C° 0,1 mm 3 m/S 760 mmHg 44%
    12:00 +28°C° 0,1 mm 3 m/S 760 mmHg 42%
    13:00 +29°C° 0,1 mm 3 m/S 759 mmHg 39%
    14:00 +28°C° 0,1 mm 4 m/S 759 mmHg 42%
    15:00 +27°C° 0,1 mm 4 m/S 758 mmHg 45%
    16:00 +27°C° 0,1 mm 4 m/S 758 mmHg 48%
    17:00 +25°C° 0 mm 3 m/S 758 mmHg 61%
    18:00 +22°C° 0 mm 3 m/S 759 mmHg 73%
    19:00 +19°C° 0 mm 2 m/S 759 mmHg 86%
    20:00 +19°C° 0 mm 2 m/S 759 mmHg 87%
    21:00 +19°C° 0 mm 2 m/S 759 mmHg 88%
    22:00 +18°C° 0 mm 2 m/S 759 mmHg 89%
    23:00 +18°C° 0 mm 2 m/S 759 mmHg 86%

    übermorgen, 26 April, Donnerstag

    Zeit Temperatur Niederschläge Wind Luftdruck Luftfeuchtigkeit
    00:00 +18°C° 0 mm 2 m/S 759 mmHg 83%
    01:00 +18°C° 0 mm 2 m/S 759 mmHg 80%
    02:00 +17°C° 0 mm 3 m/S 759 mmHg 76%
    03:00 +17°C° 0 mm 3 m/S 758 mmHg 71%
    04:00 +17°C° 0 mm 3 m/S 758 mmHg 66%
    05:00 +18°C° 0 mm 3 m/S 759 mmHg 65%
    06:00 +18°C° 0 mm 3 m/S 759 mmHg 64%
    07:00 +18°C° 0 mm 4 m/S 759 mmHg 63%
    08:00 +21°C° 0 mm 4 m/S 759 mmHg 55%
    09:00 +23°C° 0 mm 5 m/S 760 mmHg 47%
    10:00 +26°C° 0 mm 6 m/S 760 mmHg 39%
    11:00 +27°C° 0 mm 6 m/S 760 mmHg 35%
    12:00 +28°C° 0 mm 6 m/S 760 mmHg 30%
    13:00 +29°C° 0 mm 6 m/S 759 mmHg 26%
    14:00 +28°C° 0 mm 6 m/S 760 mmHg 33%
    15:00 +26°C° 0 mm 6 m/S 760 mmHg 41%
    16:00 +24°C° 0 mm 7 m/S 760 mmHg 49%
    17:00 +22°C° 0 mm 7 m/S 761 mmHg 56%
    18:00 +21°C° 0 mm 7 m/S 762 mmHg 64%
    19:00 +19°C° 0 mm 6 m/S 762 mmHg 72%
    20:00 +18°C° 0,1 mm 7 m/S 763 mmHg 73%
    21:00 +17°C° 0,1 mm 7 m/S 764 mmHg 75%
    22:00 +17°C° 0,1 mm 7 m/S 765 mmHg 77%
    23:00 +17°C° 0,1 mm 7 m/S 765 mmHg 77%

    27 April, Freitag

    Zeit Temperatur Niederschläge Wind Luftdruck Luftfeuchtigkeit
    00:00 +17°C° 0,1 mm 7 m/S 765 mmHg 76%
    01:00 +16°C° 0,1 mm 7 m/S 765 mmHg 76%
    02:00 +16°C° 0,1 mm 7 m/S 765 mmHg 74%
    03:00 +16°C° 0,1 mm 7 m/S 765 mmHg 73%
    04:00 +15°C° 0,1 mm 7 m/S 765 mmHg 72%
    05:00 +15°C° 0,1 mm 7 m/S 766 mmHg 72%
    06:00 +15°C° 0,1 mm 7 m/S 766 mmHg 72%
    07:00 +14°C° 0,1 mm 6 m/S 767 mmHg 72%
    08:00 +16°C° 0,1 mm 6 m/S 767 mmHg 66%
    09:00 +17°C° 0,1 mm 7 m/S 767 mmHg 59%
    10:00 +20°C° 0,1 mm 7 m/S 768 mmHg 53%
    11:00 +20°C° 0,1 mm 7 m/S 767 mmHg 51%
    12:00 +21°C° 0,1 mm 7 m/S 767 mmHg 49%
    13:00 +21°C° 0,1 mm 7 m/S 767 mmHg 47%
    14:00 +21°C° 0,1 mm 7 m/S 767 mmHg 49%
    15:00 +21°C° 0,1 mm 6 m/S 767 mmHg 52%
    16:00 +20°C° 0,1 mm 6 m/S 767 mmHg 54%
    17:00 +19°C° 0,1 mm 6 m/S 767 mmHg 61%
    18:00 +16°C° 0,1 mm 6 m/S 768 mmHg 68%
    19:00 +15°C° 0,1 mm 5 m/S 768 mmHg 74%
    20:00 +15°C° 0,1 mm 5 m/S 769 mmHg 76%
    21:00 +14°C° 0,1 mm 5 m/S 769 mmHg 78%
    22:00 +14°C° 0,1 mm 5 m/S 769 mmHg 80%
    23:00 +13°C° 0,1 mm 4 m/S 769 mmHg 80%

    28 April, Samstag

    Zeit Temperatur Niederschläge Wind Luftdruck Luftfeuchtigkeit
    00:00 +13°C° 0,1 mm 4 m/S 769 mmHg 80%
    01:00 +13°C° 0,1 mm 4 m/S 769 mmHg 80%
    02:00 +13°C° 0,1 mm 4 m/S 768 mmHg 80%
    03:00 +13°C° 0,1 mm 4 m/S 768 mmHg 81%
    04:00 +13°C° 0,1 mm 4 m/S 768 mmHg 81%
    05:00 +12°C° 0,1 mm 4 m/S 768 mmHg 82%
    06:00 +12°C° 0,1 mm 4 m/S 768 mmHg 83%
    07:00 +12°C° 0,1 mm 4 m/S 769 mmHg 84%
    08:00 +14°C° 0,2 mm 4 m/S 769 mmHg 78%
    09:00 +17°C° 0,2 mm 4 m/S 769 mmHg 71%
    10:00 +19°C° 0,2 mm 5 m/S 769 mmHg 64%
    11:00 +20°C° 0,2 mm 5 m/S 768 mmHg 62%
    12:00 +21°C° 0,2 mm 5 m/S 768 mmHg 59%
    13:00 +21°C° 0,2 mm 5 m/S 767 mmHg 57%
    14:00 +21°C° 0,4 mm 5 m/S 767 mmHg 63%
    15:00 +20°C° 0,4 mm 5 m/S 767 mmHg 69%
    16:00 +19°C° 0,4 mm 4 m/S 767 mmHg 75%
    17:00 +18°C° 0,6 mm 4 m/S 767 mmHg 79%
    18:00 +17°C° 0,6 mm 4 m/S 767 mmHg 83%
    19:00 +17°C° 0,6 mm 4 m/S 768 mmHg 87%
    20:00 +15°C° 0,6 mm 4 m/S 768 mmHg 88%
    21:00 +15°C° 0,6 mm 4 m/S 768 mmHg 89%
    22:00 +15°C° 0,6 mm 4 m/S 768 mmHg 90%
    23:00 +15°C° 0,3 mm 4 m/S 768 mmHg 90%

    29 April, Sonntag

    Zeit Temperatur Niederschläge Wind Luftdruck Luftfeuchtigkeit
    00:00 +14°C° 0,3 mm 4 m/S 767 mmHg 91%
    01:00 +14°C° 0,3 mm 4 m/S 767 mmHg 92%
    02:00 +13°C° 0,1 mm 4 m/S 767 mmHg 92%
    03:00 +13°C° 0,1 mm 4 m/S 767 mmHg 93%
    04:00 +13°C° 0,1 mm 4 m/S 767 mmHg 93%
    05:00 +13°C° 0 mm 4 m/S 767 mmHg 93%
    06:00 +13°C° 0 mm 4 m/S 767 mmHg 93%
    07:00 +13°C° 0 mm 4 m/S 768 mmHg 93%
    08:00 +15°C° 0 mm 4 m/S 768 mmHg 84%
    09:00 +18°C° 0 mm 4 m/S 768 mmHg 75%
    10:00 +20°C° 0 mm 4 m/S 768 mmHg 66%
    11:00 +21°C° 0,2 mm 4 m/S 767 mmHg 59%
    12:00 +22°C° 0,2 mm 4 m/S 767 mmHg 53%
    13:00 +25°C° 0,2 mm 4 m/S 766 mmHg 46%
    14:00 +23°C° 0,1 mm 5 m/S 766 mmHg 49%
    15:00 +22°C° 0,1 mm 5 m/S 766 mmHg 51%
    16:00 +22°C° 0,1 mm 5 m/S 766 mmHg 54%
    17:00 +20°C° 0 mm 4 m/S 766 mmHg 61%
    18:00 +18°C° 0 mm 4 m/S 767 mmHg 69%
    19:00 +16°C° 0 mm 3 m/S 767 mmHg 76%
    20:00 +16°C° 0 mm 3 m/S 767 mmHg 78%
    21:00 +14°C° 0 mm 3 m/S 767 mmHg 79%
    22:00 +14°C° 0 mm 3 m/S 768 mmHg 81%
    23:00 +14°C° 0 mm 3 m/S 767 mmHg 82%
    Mehr zeigen